Location: Asheville, NC
(35.6000°N, 82.5500°W)
Time: 07:07:16
(UTC-05:00)

AO-85 - Pass Details

Date: 18 February 2018
Orbit: 507 x 779 km, 64.8° (Epoch: 15 February)

Event Time Altitude Azimuth Distance (km) Brightness Sun altitude
Exits shadow 04:50:05 18° 26° (NNE) 1,413 ? -29.8°
Drops below altitude 10° 04:51:19 10° 27° (NNE) 1,903 ? -29.6°
Sets 04:53:40 0° 29° (NNE) 2,854 ? -29.1°
